| time (UTC) | temp C | wind direction | speed KPH | gust KPH | rain 1hr cm | rain 24hr cm | rain mn cm | humidity % | barometer mb |
| 20260503223011 | 29 | 254 | 6.4 | 12.9 | 0.00 | 0.00 | 0.00 | 40 | 1010.1 |
| 20260503221508 | 29 | 200 | 3.2 | 16.1 | 0.00 | 0.00 | 0.00 | 41 | 1010.3 |
| 20260503220016 | 29 | 203 | 3.2 | 11.3 | 0.00 | 0.00 | 0.00 | 41 | 1010.5 |
| 20260503214502 | 29 | 248 | 0.0 | 14.5 | 0.00 | 0.00 | 0.00 | 43 | 1010.7 |
| 20260503213058 | 28 | 191 | 1.6 | 12.9 | 0.00 | 0.00 | 0.00 | 44 | 1010.7 |
| 20260503211556 | 28 | 248 | 8.0 | 16.1 | 0.00 | 0.00 | 0.00 | 42 | 1010.7 |
| 20260503210053 | 28 | 284 | 4.8 | 14.5 | 0.00 | 0.00 | 0.00 | 44 | 1011.0 |
| 20260503204549 | 28 | 188 | 3.2 | 12.9 | 0.00 | 0.00 | 0.00 | 44 | 1011.0 |
| 20260503203047 | 28 | 280 | 1.6 | 9.7 | 0.00 | 0.00 | 0.00 | 47 | 1011.3 |
| 20260503201548 | 28 | 298 | 3.2 | 9.7 | 0.00 | 0.00 | 0.00 | 48 | 1011.4 |
| 20260503200043 | 27 | 274 | 3.2 | 14.5 | 0.00 | 0.00 | 0.00 | 46 | 1011.7 |
| 20260503194542 | 27 | 160 | 3.2 | 11.3 | 0.00 | 0.00 | 0.00 | 48 | 1012.0 |
| 20260503193035 | 26 | 221 | 3.2 | 11.3 | 0.00 | 0.00 | 0.00 | 48 | 1012.1 |
| 20260503191531 | 26 | 170 | 4.8 | 16.1 | 0.00 | 0.00 | 0.00 | 50 | 1012.4 |
| 20260503190038 | 26 | 308 | 0.0 | 12.9 | 0.00 | 0.00 | 0.00 | 54 | 1012.5 |
| 20260503184527 | 25 | 312 | 4.8 | 16.1 | 0.00 | 0.00 | 0.00 | 54 | 1012.5 |
| 20260503183022 | 24 | 217 | 3.2 | 11.3 | 0.00 | 0.00 | 0.00 | 55 | 1012.7 |
| 20260503181538 | 24 | 199 | 1.6 | 14.5 | 0.00 | 0.00 | 0.00 | 56 | 1012.8 |
| 20260503180032 | 23 | 134 | 3.2 | 11.3 | 0.00 | 0.00 | 0.00 | 57 | 1012.8 |
| 20260503174515 | 23 | 259 | 3.2 | 9.7 | 0.00 | 0.00 | 0.00 | 60 | 1013.0 |
| 20260503173013 | 22 | 292 | 4.8 | 11.3 | 0.00 | 0.00 | 0.00 | 59 | 1013.0 |
| 20260503171520 | 22 | 230 | 0.0 | 9.7 | 0.00 | 0.00 | 0.00 | 63 | 1013.1 |
| 20260503081544 | 12 | 320 | 0.0 | 0.0 | 0.00 | 0.00 | 0.00 | 87 | 1014.1 |
| 20260503071541 | 13 | 320 | 0.0 | 0.0 | 0.00 | 0.00 | 0.00 | 85 | 1014.0 |
| 20260503054538 | 15 | 317 | 0.0 | 0.0 | 0.00 | 0.00 | 0.00 | 78 | 1014.1 |
| 20260503053033 | 14 | 317 | 0.0 | 0.0 | 0.00 | 0.00 | 0.00 | 79 | 1014.0 |
| 20260503051535 | 15 | 317 | 0.0 | 1.6 | 0.00 | 0.00 | 0.00 | 80 | 1013.9 |
| 20260503050031 | 15 | 319 | 0.0 | 0.0 | 0.00 | 0.00 | 0.00 | 76 | 1013.9 |
| 20260503044534 | 16 | 318 | 0.0 | 0.0 | 0.00 | 0.00 | 0.00 | 77 | 1013.6 |
| 20260503043031 | 16 | 319 | 0.0 | 1.6 | 0.00 | 0.00 | 0.00 | 76 | 1013.5 |
| 20260503041534 | 16 | 332 | 0.0 | 4.8 | 0.00 | 0.00 | 0.00 | 74 | 1013.1 |
| 20260503040032 | 16 | 312 | 0.0 | 1.6 | 0.00 | 0.00 | 0.00 | 74 | 1012.9 |
| 20260503034529 | 17 | 323 | 0.0 | 1.6 | 0.00 | 0.00 | 0.00 | 72 | 1012.7 |
| 20260503033028 | 17 | 332 | 0.0 | 3.2 | 0.00 | 0.00 | 0.00 | 72 | 1012.5 |
| 20260503031528 | 18 | 248 | 0.0 | 1.6 | 0.00 | 0.00 | 0.00 | 70 | 1012.4 |
| 20260503030033 | 18 | 273 | 0.0 | 3.2 | 0.00 | 0.00 | 0.00 | 70 | 1012.2 |
| 20260503024526 | 20 | 339 | 0.0 | 4.8 | 0.00 | 0.00 | 0.00 | 68 | 1012.2 |
| 20260503023026 | 20 | 155 | 0.0 | 8.0 | 0.00 | 0.00 | 0.00 | 64 | 1012.1 |
| 20260503021525 | 21 | 31 | 0.0 | 4.8 | 0.00 | 0.00 | 0.00 | 63 | 1012.1 |
| 20260503020027 | 23 | 167 | 3.2 | 9.7 | 0.00 | 0.00 | 0.00 | 56 | 1012.0 |
| 20260503014525 | 23 | 302 | 0.0 | 9.7 | 0.00 | 0.00 | 0.00 | 55 | 1012.0 |
| 20260503013024 | 23 | 193 | 0.0 | 12.9 | 0.00 | 0.00 | 0.00 | 56 | 1012.1 |
| 20260503011530 | 24 | 181 | 3.2 | 11.3 | 0.00 | 0.00 | 0.00 | 52 | 1012.0 |
| 20260503010021 | 24 | 232 | 1.6 | 16.1 | 0.00 | 0.00 | 0.00 | 52 | 1012.1 |
| 20260503004521 | 24 | 250 | 1.6 | 12.9 | 0.00 | 0.00 | 0.00 | 50 | 1012.2 |
| 20260503003021 | 25 | 165 | 3.2 | 17.7 | 0.00 | 0.00 | 0.00 | 49 | 1012.3 |
| 20260503001519 | 25 | 194 | 1.6 | 11.3 | 0.00 | 0.00 | 0.00 | 53 | 1012.2 |
| 20260503000018 | 24 | 159 | 3.2 | 16.1 | 0.00 | 0.00 | 0.00 | 49 | 1012.3 |
| 20260502234530 | 24 | 204 | 6.4 | 17.7 | 0.00 | 0.00 | 0.00 | 48 | 1012.4 |
| 20260502233011 | 25 | 159 | 1.6 | 9.7 | 0.00 | 0.00 | 0.00 | 50 | 1012.6 |
| 20260502231510 | 24 | 224 | 4.8 | 14.5 | 0.00 | 0.00 | 0.00 | 51 | 1012.8 |
| 20260502230007 | 24 | 188 | 1.6 | 20.9 | 0.00 | 0.00 | 0.00 | 54 | 1012.7 |
| 20260502224504 | 23 | 226 | 4.8 | 14.5 | 0.00 | 0.00 | 0.00 | 55 | 1013.1 |